| time (UTC) | temp F | wind direction | speed MPH | gust MPH | rain 1hr in | rain 24hr in | rain mn in | humidity % | barometer mb |
| 20260504034533 | 53 | 199 | 3.0 | 9.0 | 0.00 | 0.00 | 0.00 | 67 | 1009.2 |
| 20260504033033 | 54 | 204 | 2.0 | 8.0 | 0.00 | 0.00 | 0.00 | 67 | 1009.4 |
| 20260504031527 | 54 | 176 | 1.0 | 8.0 | 0.00 | 0.00 | 0.00 | 67 | 1009.5 |
| 20260504030025 | 54 | 214 | 2.0 | 8.0 | 0.00 | 0.00 | 0.00 | 67 | 1009.7 |
| 20260504024523 | 54 | 231 | 2.0 | 5.0 | 0.00 | 0.00 | 0.00 | 66 | 1009.7 |
| 20260504023020 | 54 | 288 | 2.0 | 11.0 | 0.00 | 0.00 | 0.00 | 66 | 1009.8 |
| 20260504021517 | 54 | 207 | 2.0 | 8.0 | 0.00 | 0.00 | 0.00 | 66 | 1009.8 |
| 20260504020014 | 54 | 212 | 2.0 | 12.0 | 0.00 | 0.00 | 0.00 | 66 | 1009.9 |
| 20260504014521 | 55 | 206 | 1.0 | 7.0 | 0.00 | 0.00 | 0.00 | 66 | 1009.8 |
| 20260504013009 | 56 | 235 | 1.0 | 8.0 | 0.00 | 0.00 | 0.00 | 66 | 1009.7 |
| 20260504011508 | 56 | 221 | 2.0 | 6.0 | 0.00 | 0.00 | 0.00 | 66 | 1009.8 |
| 20260504010004 | 57 | 173 | 2.0 | 11.0 | 0.00 | 0.00 | 0.00 | 66 | 1009.7 |
| 20260504004503 | 58 | 219 | 3.0 | 7.0 | 0.00 | 0.00 | 0.00 | 66 | 1009.5 |
| 20260504003112 | 59 | 273 | 1.0 | 8.0 | 0.00 | 0.00 | 0.00 | 66 | 1009.2 |
| 20260504001607 | 60 | 270 | 2.0 | 8.0 | 0.00 | 0.00 | 0.00 | 66 | 1008.9 |
| 20260504000117 | 60 | 269 | 2.0 | 12.0 | 0.00 | 0.00 | 0.00 | 66 | 1008.8 |
| 20260503234555 | 60 | 252 | 2.0 | 10.0 | 0.00 | 0.00 | 0.00 | 66 | 1008.7 |
| 20260503233049 | 61 | 140 | 3.0 | 9.0 | 0.00 | 0.00 | 0.00 | 66 | 1008.9 |
| 20260503231548 | 62 | 262 | 1.0 | 6.0 | 0.00 | 0.00 | 0.00 | 66 | 1008.9 |
| 20260503230048 | 64 | 192 | 3.0 | 8.0 | 0.00 | 0.00 | 0.00 | 67 | 1008.7 |
| 20260503224540 | 64 | 281 | 3.0 | 15.0 | 0.00 | 0.00 | 0.00 | 67 | 1008.9 |
| 20260503223036 | 63 | 269 | 3.0 | 14.0 | 0.00 | 0.00 | 0.00 | 67 | 1009.3 |
| 20260503221534 | 63 | 199 | 5.0 | 12.0 | 0.00 | 0.00 | 0.00 | 67 | 1009.4 |
| 20260503220031 | 63 | 180 | 2.0 | 13.0 | 0.00 | 0.00 | 0.00 | 67 | 1009.5 |
| 20260503214527 | 63 | 217 | 2.0 | 13.0 | 0.00 | 0.00 | 0.00 | 67 | 1009.3 |
| 20260503213024 | 64 | 167 | 3.0 | 10.0 | 0.00 | 0.00 | 0.00 | 67 | 1009.4 |
| 20260503211522 | 64 | 187 | 3.0 | 10.0 | 0.00 | 0.00 | 0.00 | 67 | 1009.4 |
| 20260503210020 | 63 | 247 | 3.0 | 11.0 | 0.00 | 0.00 | 0.00 | 67 | 1009.4 |
| 20260503204525 | 63 | 208 | 3.0 | 11.0 | 0.00 | 0.00 | 0.00 | 67 | 1009.4 |
| 20260503203016 | 64 | 267 | 1.0 | 9.0 | 0.00 | 0.00 | 0.00 | 68 | 1009.6 |
| 20260503201511 | 64 | 188 | 3.0 | 10.0 | 0.00 | 0.00 | 0.00 | 68 | 1009.7 |
| 20260503200009 | 64 | 241 | 3.0 | 11.0 | 0.00 | 0.00 | 0.00 | 68 | 1009.7 |
| 20260503194502 | 64 | 281 | 3.0 | 8.0 | 0.00 | 0.00 | 0.00 | 68 | 1010.0 |
| 20260503193112 | 63 | 229 | 4.0 | 9.0 | 0.00 | 0.00 | 0.00 | 68 | 1010.2 |
| 20260503191605 | 64 | 202 | 4.0 | 12.0 | 0.00 | 0.00 | 0.00 | 68 | 1010.2 |
| 20260503190054 | 66 | 251 | 2.0 | 15.0 | 0.00 | 0.00 | 0.00 | 69 | 1010.6 |
| 20260503184548 | 64 | 141 | 3.0 | 9.0 | 0.00 | 0.00 | 0.00 | 69 | 1010.8 |
| 20260503183106 | 64 | 347 | 3.0 | 12.0 | 0.00 | 0.00 | 0.00 | 69 | 1011.0 |
| 20260503181558 | 64 | 226 | 6.0 | 15.0 | 0.00 | 0.00 | 0.00 | 69 | 1011.2 |
| 20260503180041 | 62 | 319 | 2.0 | 8.0 | 0.00 | 0.00 | 0.00 | 69 | 1011.5 |
| 20260503174536 | 64 | 233 | 2.0 | 8.0 | 0.00 | 0.00 | 0.00 | 69 | 1011.6 |
| 20260503173034 | 63 | 269 | 3.0 | 13.0 | 0.00 | 0.00 | 0.00 | 69 | 1011.8 |
| 20260503171530 | 62 | 238 | 2.0 | 11.0 | 0.00 | 0.00 | 0.00 | 69 | 1012.1 |
| 20260503081507 | 36 | 259 | 0.0 | 0.0 | 0.00 | 0.00 | 0.00 | 68 | 1015.4 |
| 20260503071606 | 37 | 193 | 0.0 | 0.0 | 0.00 | 0.00 | 0.00 | 69 | 1015.6 |
| 20260503070112 | 37 | 217 | 0.0 | 0.0 | 0.00 | 0.00 | 0.00 | 69 | 1015.5 |
| 20260503060106 | 38 | 211 | 0.0 | 3.0 | 0.00 | 0.00 | 0.00 | 69 | 1015.8 |
| 20260503054543 | 38 | 171 | 0.0 | 0.0 | 0.00 | 0.00 | 0.00 | 69 | 1015.9 |
| 20260503053037 | 38 | 218 | 0.0 | 1.0 | 0.00 | 0.00 | 0.00 | 69 | 1016.0 |
| 20260503051534 | 38 | 212 | 0.0 | 0.0 | 0.00 | 0.00 | 0.00 | 69 | 1016.1 |
| 20260503050032 | 37 | 125 | 0.0 | 0.0 | 0.00 | 0.00 | 0.00 | 69 | 1016.3 |
| 20260503044535 | 37 | 284 | 0.0 | 1.0 | 0.00 | 0.00 | 0.00 | 68 | 1016.2 |
| 20260503043019 | 35 | 284 | 0.0 | 1.0 | 0.00 | 0.00 | 0.00 | 68 | 1016.2 |
| 20260503041515 | 35 | 284 | 0.0 | 0.0 | 0.00 | 0.00 | 0.00 | 68 | 1016.2 |
| 20260503040012 | 35 | 284 | 0.0 | 0.0 | 0.00 | 0.00 | 0.00 | 67 | 1016.3 |